Regional Weather Roundup
Issued by NWS Northern Indiana

Home | Current Version | Previous Version | Graphics & Text | Print | Product List | Glossary On
Versions: 1 2 3 4 5 6 7 8 9 10 11 12 13 14 15 16 17 18 19 20 21 22 23 24 25 26 27 28 29 30 31 32 33 34 35 36 37 38 39 40 41 42 43 44 45 46 47 48 49 50
000
ASUS43 KIWX 070010
RWRIWX

KIWX WEATHER ROUNDUP
NATIONAL WEATHER SERVICE NORTHERN INDIANA
700 PM EST SAT FEB 06 2016

NOTE: "FAIR" INDICATES FEW OR NO CLOUDS BELOW 12,000 FEET WITH NO
SIGNIFICANT WEATHER AND/OR OBSTRUCTIONS TO VISIBILITY.

* THESE STATIONS ARE NOT UNDER NWS QUALITY CONTROL. THEY ALSO MAY NOT
  REPORT WEATHER SUCH AS PRECIPITATION OR FOG.

INZ001>027-070100-
NORTHERN INDIANA

CITY           SKY/WX    TMP DP  RH WIND       PRES   REMARKS
GARY*          PTCLDY    36  27  69 SW10      30.17S
VALPARAISO     CLEAR     36  28  73 CALM      30.17F
6HR MIN TEMP:  33; 6HR MAX TEMP:  41;

MICHIGAN CITY* CLEAR     36  28  75 S3        30.18R
LAPORTE*       CLEAR     33  29  87 CALM      30.18R
6HR MIN TEMP:  33; 6HR MAX TEMP:  41;

SOUTH BEND     CLEAR     34  26  72 SW7       30.18S WCI  28
6HR MIN TEMP:  34; 6HR MAX TEMP:  39;

GOSHEN         PTCLDY    35  27  72 SW8       30.17F WCI  29
6HR MIN TEMP:  34; 6HR MAX TEMP:  39;

MONTICELLO*    CLEAR     37  24  59 S3        30.18F
6HR MIN TEMP:  37; 6HR MAX TEMP:  42;

LOGANSPORT*    CLEAR     32  27  80 S5        30.20S WCI  27
ROCHESTER*     CLEAR     37  27  65 CALM      30.19S
WARSAW*        CLEAR     34  27  75 CALM      30.19S
FORT WAYNE     PTCLDY    31  26  82 SW8       30.21S WCI  23
6HR MIN TEMP:  31; 6HR MAX TEMP:  39;

HUNTINGTON*    CLEAR     34  23  63 CALM      30.20S
6HR MIN TEMP:  34; 6HR MAX TEMP:  40;

PERU/GRISSOM   CLEAR     34  27  77 S5        30.18F WCI  30
6HR MIN TEMP:  33; 6HR MAX TEMP:  42;

MARION*        CLEAR     33  21  60 S6        30.21S WCI  28
6HR MIN TEMP:  -1; 6HR MAX TEMP:  59;


$$
INZ028>050-070100-
CENTRAL INDIANA

CITY           SKY/WX    TMP DP  RH WIND       PRES   REMARKS
LAFAYETTE      CLEAR     39  27  62 CALM      30.19F
6HR MIN TEMP:  39; 6HR MAX TEMP:  43;

KOKOMO*          N/A     34  23  64 S6        30.20S WCI  29
6HR MIN TEMP:  34; 6HR MAX TEMP:  43;

MUNCIE*        CLEAR     38  26  62 S6        30.21S
6HR MIN TEMP:  37; 6HR MAX TEMP:  43;

INDIANAPOLIS   CLEAR     40  23  50 S7        30.21S
6HR MIN TEMP:  38; 6HR MAX TEMP:  46;


$$
MIZ043>046-050>051-056>058-064>065-071>073-077>080-070100-
SOUTHWEST LOWER MICHIGAN

CITY           SKY/WX    TMP DP  RH WIND       PRES   REMARKS
BATTLE CREEK   CLOUDY    34  24  67 SW3       30.16R
6HR MIN TEMP:  33; 6HR MAX TEMP:  36;

BENTON HARBOR  PTCLDY    36  27  69 SW6       30.16S
6HR MIN TEMP:  35; 6HR MAX TEMP:  39;

COLDWATER*     MOCLDY    34  26  74 SW6       30.16S WCI  29
6HR MIN TEMP:  33; 6HR MAX TEMP:  37;

HILLSDALE*     MOCLDY    33  22  64 S3        30.16S
6HR MIN TEMP:  33; 6HR MAX TEMP:  37;

HOLLAND        CLOUDY    34  29  82 SW7       30.15S WCI  28
6HR MIN TEMP:  34; 6HR MAX TEMP:  35;

GRAND RAPIDS   CLOUDY    34  26  72 SW9       30.15R WCI  27
6HR MIN TEMP:  33; 6HR MAX TEMP:  35;

KALAMAZOO      CLOUDY    35  25  66 SW5       30.15F WCI  31
6HR MIN TEMP:  33; 6HR MAX TEMP:  37;

STURGIS*       MOCLDY    33  27  81 SW6       30.16S WCI  27
6HR MIN TEMP:  33; 6HR MAX TEMP:  37;

THREE RIVERS*  FAIR      33  28  80 S5        30.16F WCI  29
6HR MIN TEMP:  33; 6HR MAX TEMP:  37;


$$
OHZ001>008-015>018-024>025-070100-
NORTHWEST OHIO

CITY           SKY/WX    TMP DP  RH WIND       PRES   REMARKS
DEFIANCE       CLEAR     35  24  64 SW7       30.21R WCI  29
6HR MIN TEMP:  34; 6HR MAX TEMP:  39;

FINDLAY        CLEAR     33  22  63 SW5       30.21R WCI  29
6HR MIN TEMP:  32; 6HR MAX TEMP:  39;

TOLEDO EXPRESS CLEAR     33  22  63 SW5       30.20R WCI  29
6HR MIN TEMP:  32; 6HR MAX TEMP:  38;

TOLEDO METCALF CLEAR     33  22  63 SW6       30.22R WCI  28
6HR MIN TEMP:  32; 6HR MAX TEMP:  38;

LIMA           CLEAR     34  22  61 SW7       30.21R WCI  28
6HR MIN TEMP:  34; 6HR MAX TEMP:  38;


$$
AND FOR LAKE MICHIGAN COASTAL AND OPEN LAKE BUOY OBSERVATIONS

STATION/POSITION TEMP    WIND        PRES    VSBY  WAVE
                 AIR SEA DIR/SP/G                  HT/PER
                 (F)     (DEG/KT/KT) (MB)    (MI)  (FT/S)
CALUMET HARBOR    40     180/  5/  8 1020.4F
MICHIGAN CITY     39     180/ 10/ 12   N/A
BURNS HARBOR      39     210/  7/ 12 1022.0F
SAINT JOSEPH      36     180/  9/ 12 1022.0S

$$
&&



USA.gov is the U.S. government's official web portal to all federal, state and local government web resources and services.